Погода в Неудачино

Россия / Новосибирская область     55°08′11″N   75°30′21″E
темп.,
°C
ветер,
м/с
пор.,
м/с
влажн.,
%
обл.,
%
осадки,
мм/ч
давл.,
гПа
погр.,
м
25 июня, сб
сб2501:00+20зюз22845 0.0 100518
04:00+18з36955 0.0 1005107
07:00+18з379488 0.0 1005206
10:00+20з5983100 0.1 1005595
13:00+23з456962 0.1 10041008
16:00+19зюз269581 2.9 1004358
19:00+21юз1281100 3.3 1003375
22:00+19вюв4696100 1.2 1000203
26 июня, вс
вс2601:00+17ююв2698100 1.7 998147
04:00+17вюв389848 1.9 995288
07:00+17зсз149895 2.2 994255
10:00+18с579082 0.0 995535
13:00+19зсз358263 0.1 996665
16:00+23зсз785823 0.3 9971752
19:00+21зсз58715 0.6 997913
22:00+17з35875 1.2 99795
27 июня, пн
пн2701:00+14зюз3795100 1.8 998145
04:00+14з6109645 0.7 998469
07:00+10з5109687 0.7 999468
10:00+12з6884100 0.2 1000828
13:00+11з7981100 0.6 1001938
16:00+13з7106681 0.2 10011307
19:00+12з71378100 0.3 10021241
22:00+12з71279100 0.0 10041127
28 июня, вт
вт2801:00+11з61179100 0.1 1004926
04:00+11з61180100 0.0 1005658
07:00+11зюз5981100 0.0 1005669
10:00+14з567044 0.0 10061006
13:00+16зюз5663100 0.2 10061487
16:00+16юз576579 0.0 10051267
19:00+15юз4875100 0.1 1005401
22:00+12юв3792100 0.8 1004174
29 июня, ср
ср2901:00+13ююв51287100 0.8 1002306
04:00+12юв3889100 0.2 999170
07:00+11ююв4996100 1.8 997305
10:00+12в71299100 9.3 992381
13:00+9зюз111894100 12.8 991843
16:00+13зюз10157590 1.4 9921616
19:00+12юз111682100 2.8 9911384
22:00+8юз142394100 3.6 9881465